Cloud_Cover
30 100 100 100 100 33 13 8 5 5 5 5 5 5 5 96 100 100 100 100 100 10 17 0 0 0 0 0 0 5 0 15 100 56 5 78 10 5 2 36 100 100 88 49
16 100 100 96 66 61 50 13 5 5 5 5 4 5 5 10 87 92 100 100 100 15 85 0 0 0 0 0 0 0 1 5 45 95 5 46 17 56 32 53 42 100 91 100
100 95 94 14 6 5 44 36 9 5 5 2 4 22 5 5 6 38 100 100 100 44 71 0 0 0 0 0 0 0 5 5 68 98 8 46 11 4 68 60 100 100 96 100
92 91 51 5 5 5 5 38 8 5 5 5 5 95 5 5 5 74 100 100 100 92 17 5 0 0 0 0 0 0 3 73 35 100 6 5 27 66 5 96 100 100 100 100
26 92 100 100 100 5 23 8 5 5 5 5 5 90 6 5 5 99 100 100 100 100 5 3 0 0 0 0 0 0 2 62 64 99 5 5 6 1 10 43 81 94 100 100
100 100 100 100 51 42 84 92 44 38 8 5 5 68 6 5 5 60 100 100 100 100 9 5 0 0 0 0 0 0 0 78 66 80 11 5 2 16 16 14 100 100 100 100
100 100 100 100 86 50 71 86 98 92 25 5 5 14 23 5 5 5 92 100 100 100 42 7 0 0 0 0 0 0 0 70 78 84 5 5 2 2 15 7 35 100 100 100
100 100 100 100 99 88 97 99 100 100 100 76 6 5 69 5 5 43 29 100 100 100 17 42 5 3 0 0 0 0 0 3 98 5 9 59 45 12 67 74 68 100 100 100
100 100 100 100 100 98 100 100 100 100 100 100 82 5 5 10 7 37 6 80 100 100 71 94 5 5 4 0 0 0 0 0 12 98 23 32 100 80 100 100 100 100 100 100
100 100 100 100 98 99 100 100 100 61 100 100 100 5 5 44 8 5 5 52 100 100 99 100 13 5 5 1 0 0 0 0 0 100 92 76 100 87 92 100 100 100 100 100
100 100 100 100 96 90 74 99 98 94 100 100 94 25 5 39 30 5 52 6 100 100 100 98 82 5 5 4 0 0 0 0 0 98 100 98 100 100 100 92 100 100 94 100
100 100 100 100 100 86 65 62 100 94 100 100 6 66 5 70 11 5 92 5 71 100 100 73 100 6 1 5 0 0 0 0 9 98 19 100 100 100 100 100 100 100 100 100
100 99 100 97 100 79 96 85 13 23 59 97 46 6 5 7 7 5 68 5 6 62 100 68 100 28 5 5 0 0 0 0 17 100 53 96 85 93 100 100 100 94 100 100
100 96 71 100 100 98 54 56 90 88 30 13 76 34 5 39 100 13 5 5 5 18 77 89 100 98 5 5 1 0 0 0 34 95 38 62 95 100 96 98 64 100 100 100
90 11 35 78 100 100 94 100 100 100 54 37 68 76 9 7 100 8 5 5 4 5 9 100 99 100 91 5 5 1 0 0 8 31 16 95 71 69 100 96 98 100 100 100
72 60 5 26 39 100 100 97 100 100 100 5 5 100 5 4 100 46 45 23 5 5 5 98 94 100 100 40 5 5 0 0 0 7 1 76 90 79 75 99 100 100 100 100
100 32 98 100 99 98 100 100 100 100 100 3 5 99 5 5 96 100 83 67 6 6 34 15 57 100 100 100 40 5 4 0 0 62 0 22 91 93 98 87 57 100 100 100
99 97 100 100 95 100 100 100 100 100 100 5 29 54 5 84 80 85 100 94 28 5 7 5 51 58 64 100 100 42 5 5 1 0 0 17 50 100 99 100 81 99 100 100
100 100 100 88 57 96 100 100 100 100 100 5 10 5 5 100 100 100 86 100 98 34 29 5 40 67 46 56 98 28 5 5 5 5 2 5 6 14 49 61 79 99 34 38
94 100 100 100 94 100 100 100 100 100 100 0 2 23 100 100 100 100 82 100 100 100 88 63 13 5 33 48 64 57 53 5 5 5 5 5 5 5 5 5 13 38 62 82
100 100 100 100 84 91 100 100 100 100 5 0 0 5 38 100 100 100 100 100 100 100 99 92 70 68 8 5 8 62 38 67 14 5 9 5 5 5 5 12 5 5 10 59
100 100 98 100 100 94 100 100 88 94 100 83 1 0 6 100 100 100 100 100 100 100 87 100 100 100 99 95 17 52 95 13 12 5 5 7 13 5 6 16 83 100 39 10
25 100 100 100 100 100 100 100 100 100 100 100 12 1 51 96 100 100 100 100 100 100 100 100 100 100 100 100 72 84 97 96 28 5 5 8 64 48 25 45 23 83 100 87
100 100 89 100 100 96 100 77 100 100 38 100 90 97 100 87 87 100 100 100 100 100 100 100 100 100 100 100 100 98 77 100 100 19 28 16 81 90 81 96 94 100 86 60
94 16 100 100 54 94 100 100 27 100 100 100 100 100 100 93 97 41 97 100 100 100 100 100 100 100 100 100 100 100 100 100 100 100 100 84 90 96 99 100 100 100 100 100
91 100 100 100 100 20 100 11 60 100 100 100 100 100 100 93 98 94 100 100 99 89 100 100 100 100 100 100 100 100 100 100 100 100 100 100 100 100 100 100 95 100 78 66